| time (UTC) | temp C | wind direction | speed KPH | gust KPH | rain 1hr cm | rain 24hr cm | rain mn cm | humidity % | barometer mb |
| 20260831163704 | 16 | 283 | 3.2 | 8.0 | 0.00 | 0.00 | 0.00 | 79 | 1013.2 |
| 20260831163203 | 16 | 346 | 1.6 | 9.7 | 0.00 | 0.00 | 0.00 | 80 | 1013.3 |
| 20260831160704 | 15 | 316 | 3.2 | 8.0 | 0.00 | 0.00 | 0.00 | 81 | 1013.5 |
| 20260831160204 | 15 | 332 | 3.2 | 9.7 | 0.00 | 0.00 | 0.00 | 82 | 1013.5 |
| 20260831153704 | 15 | 345 | 1.6 | 4.8 | 0.00 | 0.00 | 0.00 | 83 | 1013.7 |
| 20260831153204 | 15 | 19 | 4.8 | 11.3 | 0.00 | 0.00 | 0.00 | 84 | 1013.8 |
| 20260831150704 | 14 | 25 | 3.2 | 4.8 | 0.00 | 0.00 | 0.00 | 85 | 1013.8 |
| 20260831150203 | 14 | 10 | 1.6 | 4.8 | 0.00 | 0.00 | 0.00 | 85 | 1013.8 |
| 20260831143704 | 13 | 26 | 1.6 | 3.2 | 0.00 | 0.00 | 0.00 | 86 | 1013.7 |
| 20260831143204 | 13 | 26 | 1.6 | 3.2 | 0.00 | 0.00 | 0.00 | 86 | 1013.6 |
| 20260831140704 | 13 | 26 | 0.0 | 0.0 | 0.00 | 0.00 | 0.00 | 87 | 1013.7 |
| 20260831140204 | 13 | 26 | 0.0 | 3.2 | 0.00 | 0.00 | 0.00 | 87 | 1013.7 |
| 20260831133703 | 13 | 26 | 1.6 | 3.2 | 0.00 | 0.00 | 0.00 | 87 | 1013.5 |
| 20260831133203 | 13 | 24 | 0.0 | 4.8 | 0.00 | 0.00 | 0.00 | 87 | 1013.5 |
| 20260831130704 | 13 | 14 | 1.6 | 4.8 | 0.00 | 0.00 | 0.00 | 86 | 1013.6 |
| 20260831130204 | 13 | 355 | 3.2 | 4.8 | 0.00 | 0.00 | 0.00 | 86 | 1013.7 |
| 20260831123704 | 14 | 15 | 1.6 | 4.8 | 0.00 | 0.00 | 0.00 | 86 | 1013.8 |
| 20260831123204 | 14 | 338 | 3.2 | 14.5 | 0.00 | 0.00 | 0.00 | 86 | 1013.8 |
| 20260831120704 | 14 | 353 | 3.2 | 8.0 | 0.00 | 0.00 | 0.00 | 85 | 1014.0 |
| 20260831120204 | 14 | 347 | 3.2 | 11.3 | 0.00 | 0.00 | 0.00 | 85 | 1014.0 |
| 20260831113703 | 14 | 0 | 1.6 | 4.8 | 0.00 | 0.00 | 0.00 | 85 | 1014.3 |
| 20260831113203 | 14 | 0 | 3.2 | 4.8 | 0.00 | 0.00 | 0.00 | 84 | 1014.3 |
| 20260831110704 | 14 | 355 | 1.6 | 4.8 | 0.00 | 0.00 | 0.00 | 83 | 1014.4 |
| 20260831110203 | 14 | 355 | 1.6 | 8.0 | 0.00 | 0.00 | 0.00 | 83 | 1014.5 |
| 20260831103704 | 15 | 12 | 3.2 | 4.8 | 0.00 | 0.00 | 0.00 | 82 | 1014.6 |
| 20260831103204 | 15 | 18 | 4.8 | 9.7 | 0.00 | 0.00 | 0.00 | 82 | 1014.7 |
| 20260831100704 | 15 | 25 | 4.8 | 9.7 | 0.00 | 0.00 | 0.00 | 81 | 1014.8 |
| 20260831093704 | 15 | 22 | 4.8 | 11.3 | 0.00 | 0.00 | 0.00 | 80 | 1015.1 |
| 20260831093204 | 15 | 5 | 3.2 | 8.0 | 0.00 | 0.00 | 0.00 | 80 | 1015.2 |
| 20260831090704 | 15 | 24 | 4.8 | 8.0 | 0.00 | 0.00 | 0.00 | 80 | 1015.5 |
| 20260831083703 | 16 | 30 | 3.2 | 8.0 | 0.00 | 0.00 | 0.00 | 80 | 1015.5 |
| 20260831083204 | 16 | 31 | 3.2 | 12.9 | 0.00 | 0.00 | 0.00 | 80 | 1015.5 |
| 20260831080704 | 16 | 30 | 3.2 | 4.8 | 0.00 | 0.00 | 0.00 | 79 | 1015.7 |
| 20260831073703 | 16 | 32 | 1.6 | 4.8 | 0.00 | 0.00 | 0.00 | 76 | 1015.9 |
| 20260831073204 | 16 | 32 | 1.6 | 4.8 | 0.00 | 0.00 | 0.00 | 76 | 1015.9 |
| 20260831070704 | 16 | 32 | 1.6 | 3.2 | 0.00 | 0.00 | 0.00 | 74 | 1016.2 |
| 20260831070203 | 16 | 32 | 1.6 | 4.8 | 0.00 | 0.00 | 0.00 | 74 | 1016.2 |
| 20260831063704 | 16 | 32 | 0.0 | 1.6 | 0.00 | 0.00 | 0.00 | 72 | 1016.4 |
| 20260831060703 | 17 | 32 | 1.6 | 3.2 | 0.00 | 0.00 | 0.00 | 71 | 1016.7 |
| 20260831060203 | 17 | 32 | 1.6 | 8.0 | 0.00 | 0.00 | 0.00 | 70 | 1016.7 |
| 20260831053703 | 17 | 28 | 1.6 | 4.8 | 0.00 | 0.00 | 0.00 | 71 | 1017.0 |
| 20260831053204 | 17 | 24 | 1.6 | 4.8 | 0.00 | 0.00 | 0.00 | 71 | 1017.1 |
| 20260831050703 | 17 | 14 | 1.6 | 4.8 | 0.00 | 0.00 | 0.00 | 71 | 1017.2 |
| 20260831043703 | 18 | 17 | 1.6 | 3.2 | 0.00 | 0.00 | 0.00 | 69 | 1017.3 |
| 20260831043203 | 18 | 39 | 1.6 | 8.0 | 0.00 | 0.00 | 0.00 | 68 | 1017.4 |
| 20260831040704 | 18 | 356 | 1.6 | 4.8 | 0.00 | 0.00 | 0.00 | 66 | 1017.4 |
| 20260831040204 | 18 | 355 | 3.2 | 8.0 | 0.00 | 0.00 | 0.00 | 66 | 1017.3 |
| 20260831033704 | 19 | 326 | 3.2 | 11.3 | 0.00 | 0.00 | 0.00 | 62 | 1017.3 |
| 20260831030203 | 20 | 343 | 1.6 | 4.8 | 0.00 | 0.00 | 0.00 | 59 | 1017.1 |
| 20260831023704 | 20 | 299 | 3.2 | 4.8 | 0.00 | 0.00 | 0.00 | 56 | 1017.2 |
| 20260831020704 | 21 | 331 | 3.2 | 11.3 | 0.00 | 0.00 | 0.00 | 55 | 1017.4 |
| 20260831020204 | 21 | 279 | 3.2 | 16.1 | 0.00 | 0.00 | 0.00 | 55 | 1017.4 |
| 20260831013703 | 22 | 19 | 1.6 | 4.8 | 0.00 | 0.00 | 0.00 | 52 | 1017.5 |
| 20260831013204 | 22 | 306 | 3.2 | 14.5 | 0.00 | 0.00 | 0.00 | 50 | 1017.5 |
| 20260831010704 | 23 | 284 | 3.2 | 4.8 | 0.00 | 0.00 | 0.00 | 49 | 1017.7 |
| 20260831010204 | 23 | 287 | 3.2 | 12.9 | 0.00 | 0.00 | 0.00 | 49 | 1017.7 |
| 20260831003704 | 23 | 227 | 1.6 | 9.7 | 0.00 | 0.00 | 0.00 | 48 | 1017.9 |
| 20260831003204 | 23 | 316 | 3.2 | 12.9 | 0.00 | 0.00 | 0.00 | 48 | 1017.9 |
| 20260831000704 | 22 | 352 | 3.2 | 9.7 | 0.00 | 0.00 | 0.00 | 50 | 1018.1 |
| 20260831000204 | 22 | 277 | 4.8 | 12.9 | 0.00 | 0.00 | 0.00 | 50 | 1018.2 |
| 20260830233704 | 23 | 26 | 3.2 | 8.0 | 0.00 | 0.00 | 0.00 | 52 | 1018.4 |
| 20260830233204 | 22 | 291 | 3.2 | 12.9 | 0.00 | 0.00 | 0.00 | 52 | 1018.3 |
| 20260830230704 | 23 | 22 | 4.8 | 14.5 | 0.00 | 0.00 | 0.00 | 51 | 1018.4 |
| 20260830230204 | 23 | 246 | 6.4 | 16.1 | 0.00 | 0.00 | 0.00 | 51 | 1018.4 |
| 20260830223704 | 22 | 287 | 8.0 | 16.1 | 0.00 | 0.00 | 0.00 | 53 | 1018.8 |
| 20260830223204 | 22 | 268 | 6.4 | 16.1 | 0.00 | 0.00 | 0.00 | 52 | 1018.8 |
| 20260830220704 | 23 | 167 | 4.8 | 9.7 | 0.00 | 0.00 | 0.00 | 52 | 1018.8 |
| 20260830220204 | 23 | 219 | 4.8 | 16.1 | 0.00 | 0.00 | 0.00 | 52 | 1018.9 |
| 20260830213203 | 22 | 264 | 4.8 | 11.3 | 0.00 | 0.00 | 0.00 | 56 | 1019.3 |
| 20260830210204 | 22 | 277 | 4.8 | 19.3 | 0.00 | 0.00 | 0.00 | 55 | 1019.5 |
| 20260830203704 | 21 | 75 | 3.2 | 8.0 | 0.00 | 0.00 | 0.00 | 58 | 1019.7 |
| 20260830203203 | 21 | 55 | 1.6 | 12.9 | 0.00 | 0.00 | 0.00 | 59 | 1019.7 |
| 20260830200703 | 20 | 97 | 4.8 | 9.7 | 0.00 | 0.00 | 0.00 | 62 | 1020.0 |
| 20260830200204 | 19 | 160 | 8.0 | 12.9 | 0.00 | 0.00 | 0.00 | 63 | 1020.0 |
| 20260830193704 | 18 | 171 | 3.2 | 4.8 | 0.00 | 0.00 | 0.00 | 65 | 1020.2 |
| 20260830193204 | 19 | 259 | 1.6 | 14.5 | 0.00 | 0.00 | 0.00 | 64 | 1020.1 |
| 20260830190704 | 19 | 236 | 6.4 | 14.5 | 0.00 | 0.00 | 0.00 | 64 | 1020.2 |
| 20260830183204 | 18 | 206 | 4.8 | 14.5 | 0.00 | 0.00 | 0.00 | 67 | 1020.2 |
| 20260830180703 | 17 | 166 | 4.8 | 9.7 | 0.00 | 0.00 | 0.00 | 70 | 1020.4 |
| 20260830173204 | 17 | 290 | 1.6 | 11.3 | 0.00 | 0.00 | 0.00 | 70 | 1020.4 |
| 20260830170704 | 16 | 169 | 1.6 | 4.8 | 0.00 | 0.00 | 0.00 | 71 | 1020.4 |